Home   Weather   Addis Ababa   Past weeks

Flag for Ethiopia Past Weather in Addis Ababa, Ethiopia — Yesterday and Last 2 Weeks

Now
66 °F

Passing clouds.


Feels Like: 66 °F
Forecast: 50 / 77 °F
Wind: 7 mph from East

Location: Addis Ababa Airport

Current Time: Feb 22, 2017 at 8:36:17 pm

Latest Report: Feb 22, 2017 at 8:00 pm


Visibility: N/A

Pressure: 30.27 "Hg (22.98 "Hg at 2354m altitude)

Humidity: 32%

Dew Point: 36 °F

Location of Addis AbabaLocation

Past Weather in Addis Ababa — Graph

°F

Addis Ababa Temperature Yesterday

Maximum temperature yesterday: 77 °F (at 4:00 pm)
Minimum temperature yesterday: 46 °F (at 7:00 am)
Average temperature yesterday: 62 °F

High & Low Weather Summary for the Past Weeks

 TemperatureHumidityPressure
High79 °F (Feb 9, 2:00 pm)100% (Feb 14, 12:00 am)30.42 "Hg (Feb 14, 12:00 am)
Low46 °F (Feb 21, 7:00 am)10% (Feb 9, 5:00 pm)30.18 "Hg (Feb 11, 3:00 pm)
Average64 °F53%30.30 "Hg
* Reported Feb 8 2:00 am — Feb 22 7:00 pm, Addis Ababa, Weather by CustomWeather, © 2017

Note: Actual official high and low records may vary slightly from our data, if they occured in-between our weather recording intervals... More about our weather records

Advertising

Addis Ababa Weather History for the Previous 24 Hours

Scroll right to see more
 ConditionsComfort  
Time TempWeatherWind HumidityBarometerVisibility
7:00 pm
Wed, Feb 22
70 °FPassing clouds.9 mph29%30.24 "HgN/A
6:00 pm73 °FScattered clouds.5 mph25%30.24 "HgN/A
5:00 pm75 °FScattered clouds.7 mph25%30.21 "HgN/A
4:00 pm75 °FScattered clouds.5 mph24%30.21 "HgN/A
3:00 pm75 °FScattered clouds.12 mph24%30.24 "HgN/A
12:00 pm70 °FPassing clouds.3 mph29%30.30 "HgN/A
10:00 am66 °FPassing clouds.7 mph32%30.33 "HgN/A
9:00 am64 °FPassing clouds.8 mph32%30.36 "HgN/A
7:00 am50 °FPassing clouds.2 mph67%30.33 "HgN/A
6:00 am50 °FPassing clouds.2 mph71%30.30 "HgN/A
5:00 am52 °FPassing clouds.5 mph62%30.27 "HgN/A
4:00 am54 °FPassing clouds.3 mph58%30.27 "HgN/A
3:00 am54 °FPassing clouds.7 mph58%30.27 "HgN/A
2:00 am55 °FPassing clouds.7 mph55%30.27 "HgN/A
1:00 am57 °FPassing clouds.9 mph51%30.30 "HgN/A
12:00 am59 °FPassing clouds.7 mph45%30.33 "HgN/A
11:00 pm
Tue, Feb 21
59 °FPassing clouds.9 mph42%30.33 "HgN/A
10:00 pm59 °FPassing clouds.9 mph42%30.33 "HgN/A
9:00 pm61 °FPassing clouds.9 mph48%30.30 "HgN/A
8:00 pm61 °FPassing clouds.9 mph42%30.27 "HgN/A
Weather by CustomWeather, © 2017

See weather overviewHow to use our weather pages